Location: Sungai Jaoh
(2.9167°N, 113.9167°E)
Time: 06:47:54
(UTC+00:00)

ADEOS - Pass Details

Date: 30 November 2020
Orbit: 792 x 795 km, 98.9° (Epoch: 25 January)

Event Time Altitude Azimuth Distance (km) Brightness Sun altitude
Rises 20:58:05 0° 2° (N) 3,278 6.6 -18.5°
Reaches altitude 10° 21:00:28 10° 357° (N) 2,351 5.8 -18.0°
Maximum altitude 21:05:27 48° 283° (WNW) 1,026 3.7 -16.8°
Drops below altitude 10° 21:10:26 10° 209° (SSW) 2,356 5.9 -15.7°
Sets 21:12:50 0° 204° (SSW) 3,286 6.8 -15.1°
